SCP
2 2 2 2 2 2 1 1 1 1 1 1 0 0 0 0 0 0 0 0 0 0 1 1 1 1 1 1 1 1 1 1 1 1 1 1 1 1 1 1 1 0 0
1 1 1 1 1 1 1 1 1 1 1 1 1 0 0 0 0 0 0 0 0 0 0 1 1 1 1 1 1 1 1 1 1 1 1 1 1 1 1 1 1 0 0
1 1 1 1 1 1 1 1 1 1 1 1 1 0 0 0 0 0 0 0 0 0 0 1 1 1 1 1 1 1 1 1 1 1 1 1 1 1 1 1 1 1 1
1 1 1 0 0 1 1 1 1 1 1 1 0 0 0 0 1 1 1 0 0 0 1 1 1 1 1 1 1 1 1 1 1 1 1 1 1 1 1 1 1 1 1
1 1 1 1 1 1 1 1 1 1 1 0 0 0 0 1 1 1 1 0 0 1 1 1 1 1 1 1 1 1 1 1 1 1 1 1 1 1 1 1 1 1 1
2 1 1 1 1 1 1 1 1 1 1 0 0 0 0 1 1 1 1 1 1 1 1 1 1 1 1 1 1 1 1 1 1 1 1 1 1 1 1 1 1 1 1
2 2 1 1 1 1 1 1 1 1 1 0 1 1 0 0 1 1 1 1 1 1 1 1 1 1 1 1 1 1 1 1 1 1 1 1 1 1 1 1 1 1 1
2 2 2 2 1 1 1 1 1 1 0 0 1 0 0 0 0 0 1 1 1 1 1 1 1 1 2 1 1 1 1 1 1 1 1 1 1 1 1 1 1 1 1
2 2 2 2 2 2 1 1 1 1 1 1 0 0 0 0 0 0 0 1 1 1 1 1 1 1 1 1 1 1 1 1 1 1 1 2 2 2 1 1 1 1 1
3 3 2 2 2 2 2 2 1 1 1 1 1 0 0 0 0 0 1 1 1 1 1 1 1 1 1 1 1 1 1 1 1 1 2 2 2 2 2 1 1 1 1
4 4 3 2 2 2 2 2 2 2 2 1 1 1 1 0 0 0 1 1 1 1 1 1 1 1 1 1 1 1 1 1 1 1 1 1 1 1 1 1 1 1 1
6 5 4 3 3 3 3 3 2 2 2 2 1 1 1 1 0 0 0 1 1 1 1 1 1 1 1 1 1 1 1 1 1 1 1 1 1 1 1 1 1 1 1
8 7 5 4 3 3 3 3 3 2 2 2 2 1 1 1 1 0 0 0 1 1 1 1 1 1 1 1 1 1 1 1 1 1 1 1 1 1 1 1 1 1 1
9 9 8 6 5 4 3 3 3 2 2 2 2 2 1 1 1 1 0 0 0 0 0 0 1 1 1 1 1 1 0 0 0 0 0 1 1 1 1 1 1 0 0
11 10 9 8 7 5 4 3 3 2 3 3 3 2 2 2 1 1 0 0 0 0 0 0 0 1 1 1 1 1 1 0 0 0 0 0 0 1 1 1 0 0 0
11 10 9 9 8 6 5 4 3 3 3 3 3 3 3 2 2 1 0 0 0 0 0 0 0 0 0 0 0 1 1 0 0 0 0 0 0 0 0 0 0 0 0
10 9 9 8 8 7 6 5 4 3 3 4 4 3 3 3 3 2 1 0 0 0 0 0 0 0 0 0 0 0 1 1 0 0 0 0 0 0 0 0 0 0 0
9 8 8 7 7 7 6 5 4 4 4 4 4 4 4 4 3 3 2 1 0 0 0 0 0 0 0 0 0 0 0 0 0 0 0 0 0 0 0 0 0 0 0
7 7 6 6 6 6 6 5 4 4 4 4 4 4 4 4 4 3 2 1 0 0 0 0 0 0 0 0 0 0 0 0 0 0 0 0 0 0 0 0 0 0 0
6 5 5 5 5 5 5 5 4 4 4 4 4 4 4 4 4 4 3 2 1 0 0 0 0 0 0 0 0 0 0 0 0 0 0 0 0 0 0 0 0 0 0
5 5 4 4 4 4 4 4 4 4 4 4 4 4 4 4 3 3 3 2 1 0 0 0 0 0 0 0 0 0 0 0 0 0 0 0 0 0 0 0 0 0 0
4 4 3 3 3 3 3 2 2 3 3 3 3 3 3 3 2 2 1 1 1 0 0 0 0 0 0 0 0 0 0 0 0 0 0 0 0 0 0 0 0 0 0
3 3 3 2 2 2 2 1 1 1 2 2 3 2 2 2 1 1 0 0 0 0 0 0 0 0 0 0 0 0 0 0 0 0 0 0 0 0 0 0 0 0 0
2 2 2 2 2 1 1 0 0 1 1 2 2 2 2 1 1 1 0 0 0 0 0 0 0 0 0 0 0 0 0 0 0 0 0 0 0 0 0 0 0 0 0
1 1 1 1 1 1 1 0 0 0 1 1 2 2 2 1 0 0 0 0 0 0 0 0 0 0 0 0 0 0 0 0 0 0 0 0 0 0 0 0 0 0 0
1 1 1 1 1 1 1 0 0 1 1 1 2 2 2 1 0 0 0 0 0 0 0 0 0 0 0 0 0 0 0 0 0 0 0 0 0 0 0 0 0 0 0
Wind_Speed
2 1 1 1 1 1 1 1 1 2 2 2 2 2 2 2 2 1 1 2 2 2 3 4 4 4 4 4 4 5 4 4 4 4 4 4 4 4 4 5 5 5 5
2 2 1 1 1 1 1 1 1 1 1 1 2 2 2 2 1 1 1 1 2 2 2 2 3 3 3 4 4 5 5 5 4 4 4 4 4 4 5 5 5 5 5
3 2 2 1 1 1 2 2 2 2 1 1 1 1 1 1 1 1 1 0 1 2 2 2 1 1 2 3 4 4 5 5 5 5 5 4 4 5 5 5 5 5 5
3 2 2 1 1 2 2 2 2 2 1 1 1 1 1 1 1 1 1 1 1 0 1 2 1 1 2 3 3 4 4 5 5 5 5 5 5 4 4 4 5 5 4
3 3 2 2 2 2 2 2 2 2 2 1 1 1 1 1 1 1 1 1 0 0 0 1 1 1 2 3 3 3 3 5 5 5 5 5 5 5 4 4 5 5 5
3 3 2 2 2 2 2 2 2 2 2 2 2 2 2 1 1 1 0 0 0 0 0 0 0 1 2 2 2 2 3 4 4 5 5 5 4 4 5 4 4 4 4
3 3 3 3 3 2 3 3 2 3 2 2 2 2 2 2 1 1 0 0 0 0 0 0 0 0 1 1 2 2 3 4 4 4 5 5 4 4 4 4 4 3 3
3 4 4 3 3 3 3 3 3 2 1 1 2 2 1 2 2 1 0 0 0 0 0 0 0 0 0 0 0 1 2 3 4 4 4 5 5 4 4 4 4 3 3
3 3 4 3 3 3 3 3 4 4 3 1 1 3 3 2 1 1 1 0 0 0 1 1 0 0 1 1 1 1 2 2 4 4 4 4 4 4 4 4 4 3 3
3 3 4 4 3 3 3 3 3 3 4 2 1 1 1 3 2 0 1 1 0 0 1 1 1 1 1 1 1 1 2 3 3 4 4 4 4 4 4 4 4 4 4
2 3 3 3 3 3 3 2 3 3 3 3 2 2 2 1 1 2 1 1 1 1 1 1 1 1 1 1 1 1 1 2 2 3 4 4 4 4 4 4 4 4 4
1 2 3 3 3 3 3 3 3 3 2 3 2 2 2 2 2 2 2 1 1 1 1 1 1 1 1 1 1 1 1 1 2 2 3 3 4 4 5 5 5 5 5
2 2 3 3 3 3 3 3 3 3 3 3 3 2 2 2 2 2 2 1 1 1 1 1 1 1 1 1 1 2 1 1 1 2 2 3 4 4 5 5 6 5 5
2 3 3 3 3 3 3 3 3 3 2 3 3 2 2 2 2 2 3 3 1 1 1 2 1 1 1 1 2 2 2 2 2 2 2 3 3 4 5 5 5 5 5
2 3 3 3 3 3 3 3 3 3 3 3 3 3 2 2 2 2 2 3 3 2 2 2 1 2 2 1 2 2 2 3 3 3 3 4 4 4 4 5 5 5 5
2 3 3 3 3 2 3 3 3 3 3 3 2 3 2 1 1 2 2 2 2 3 3 2 2 1 2 2 2 2 2 3 3 4 4 4 4 4 5 5 5 5 5
3 3 3 3 3 3 3 3 3 3 3 3 3 3 3 2 2 2 2 2 2 2 3 2 1 1 2 2 1 2 2 2 2 4 4 4 4 4 5 5 5 5 5
2 3 3 3 3 3 3 3 3 4 4 4 3 3 3 2 2 2 2 2 3 3 3 2 1 1 2 2 2 2 2 2 2 4 4 5 5 4 5 5 5 6 6
3 3 3 3 3 3 3 3 3 4 4 4 4 4 4 4 4 3 3 3 2 2 2 2 2 1 1 1 1 1 1 1 3 3 4 4 5 5 5 6 6 6 6
3 3 3 3 3 3 3 3 3 3 3 3 4 4 5 5 5 5 4 4 3 2 2 2 2 1 1 1 1 1 1 1 2 2 3 3 4 5 6 7 7 7 7
3 3 2 2 2 2 3 3 3 4 3 3 3 4 4 6 6 5 4 4 4 3 3 2 2 1 2 1 2 2 2 2 2 2 2 3 2 3 4 6 7 8 8
2 2 2 2 2 2 3 4 3 3 3 4 3 3 3 4 5 7 7 6 6 6 5 4 3 3 4 3 2 2 2 1 2 1 2 3 2 4 4 4 7 9 9
2 2 2 2 2 2 3 4 4 3 3 4 4 3 3 3 3 3 4 5 7 8 8 6 6 6 5 5 4 3 3 3 4 2 2 4 3 4 4 5 8 8 9
2 2 2 2 2 2 3 3 4 3 3 3 4 4 4 3 3 3 3 3 5 6 7 6 7 7 6 5 6 5 4 3 3 3 3 3 3 4 4 4 6 8 8
1 1 2 2 2 3 3 3 2 2 2 3 3 4 4 4 5 4 4 4 5 5 5 7 7 7 6 7 6 4 3 3 3 3 4 3 3 3 3 4 4 6 8
1 1 1 2 2 3 3 3 3 2 2 2 2 2 4 5 5 4 4 4 5 5 4 3 4 4 4 5 8 7 6 5 3 3 3 4 2 2 3 2 2 3 3
Wind_Direction
151 137 121 118 116 97 102 97 96 104 105 107 116 122 128 125 124 120 127 136 128 138 152 157 163 167 168 172 175 175 176 172 172 170 167 163 160 155 154 148 147 146 147
157 149 140 133 133 120 116 118 121 121 114 118 123 131 139 140 139 138 120 139 137 130 130 148 160 171 182 182 181 182 181 179 174 168 166 166 165 161 158 156 158 155 152
168 165 158 169 178 150 138 120 111 103 107 110 117 137 143 143 152 153 125 77 107 129 135 140 149 160 178 179 181 183 183 181 177 174 170 163 164 171 174 171 170 167 164
171 161 159 176 165 134 131 128 122 114 108 112 114 110 109 123 152 163 133 104 64 79 136 148 165 180 177 182 185 188 189 182 181 182 179 169 162 156 164 171 170 166 166
172 167 171 175 152 133 130 143 117 128 125 117 125 94 87 96 116 142 134 125 99 2 338 205 201 205 194 190 190 196 194 184 179 176 175 169 167 164 160 162 165 167 170
173 170 168 165 151 137 133 129 128 111 121 135 114 74 48 51 70 77 133 120 192 246 241 287 297 260 202 187 188 196 191 184 180 179 184 181 176 171 171 165 163 171 176
173 165 162 157 154 154 162 149 137 117 102 99 92 63 26 31 55 53 55 80 22 307 307 147 140 287 274 234 223 208 192 190 188 187 195 186 173 170 166 161 160 162 164
175 170 164 166 162 154 152 155 139 125 114 117 119 110 55 359 356 11 40 151 275 318 294 180 136 144 282 288 321 203 201 204 200 198 191 178 174 172 172 164 161 162 162
180 173 172 164 163 164 171 175 163 149 153 155 125 138 143 196 296 330 322 330 303 218 268 257 200 223 248 238 257 249 219 212 215 211 194 186 186 187 190 182 178 180 182
177 174 171 167 165 169 174 185 173 164 155 164 159 108 132 147 148 262 325 328 292 236 265 268 265 253 255 263 268 257 231 207 206 208 201 193 191 193 196 197 197 201 207
175 170 165 163 162 168 177 172 159 162 166 168 163 148 120 84 108 144 217 306 319 285 258 250 243 247 247 241 264 278 230 200 197 200 195 194 202 209 212 215 214 216 219
174 170 165 166 166 168 175 175 162 162 171 164 160 156 155 156 167 158 177 207 254 283 268 249 237 244 239 234 252 283 237 210 203 204 203 209 220 225 225 224 224 225 230
182 186 174 173 174 177 172 159 154 165 170 167 172 178 177 179 159 157 156 173 209 285 291 257 243 245 240 231 248 261 250 229 216 225 232 235 236 234 233 230 229 230 231
190 179 173 174 176 173 169 160 158 175 170 177 180 175 178 191 175 168 161 157 164 276 284 267 262 239 247 233 251 237 243 239 232 236 248 252 248 242 237 234 232 230 229
175 171 167 168 175 174 172 167 171 182 175 178 184 181 183 201 184 185 173 172 172 204 239 246 244 246 241 229 231 221 234 243 236 235 243 249 246 245 239 236 234 229 228
169 162 165 167 173 173 171 170 175 183 175 185 185 176 187 204 194 186 188 191 187 191 221 226 229 243 236 238 226 224 235 244 239 238 243 246 250 250 244 237 232 226 227
170 169 176 173 175 176 175 171 184 179 180 192 193 186 198 196 191 191 187 184 193 188 210 234 229 237 218 237 250 240 241 239 248 245 246 243 243 245 246 241 236 234 234
172 175 172 175 181 180 181 179 189 191 190 197 202 196 209 202 202 204 198 201 202 193 195 222 226 223 227 233 236 236 240 238 247 246 242 240 238 244 245 243 240 239 238
167 168 175 185 189 185 187 190 195 200 199 202 203 204 210 202 212 213 209 209 207 198 190 196 220 227 242 237 233 250 247 256 254 249 243 237 244 250 248 245 244 242 240
166 177 186 193 198 193 190 192 199 204 205 211 214 213 213 210 214 211 212 212 204 197 186 189 207 217 233 241 212 235 262 259 264 261 262 252 250 249 247 243 244 242 239
174 178 179 191 196 195 194 198 202 202 205 216 224 224 227 226 222 212 214 206 200 199 192 193 201 202 211 207 217 219 240 274 264 244 267 259 253 251 247 244 243 241 240
177 170 182 191 205 214 204 205 201 204 207 215 229 237 240 237 235 229 228 214 201 199 201 199 205 210 221 217 206 206 213 236 265 227 244 265 249 258 253 243 238 238 236
179 184 199 198 210 236 221 213 212 203 212 219 224 229 239 241 230 235 239 231 227 224 210 201 209 217 212 205 195 205 207 215 239 239 221 260 251 261 259 251 238 238 235
185 198 199 198 209 245 234 223 223 212 221 227 225 223 226 240 234 225 230 236 239 236 226 218 223 226 223 211 202 206 213 229 258 238 205 244 251 258 271 260 241 235 236
187 208 195 195 210 243 236 230 209 209 225 241 241 234 228 237 238 219 215 237 251 254 241 231 233 237 229 220 205 191 194 209 253 246 201 226 250 266 271 263 251 237 237
207 218 225 217 220 236 237 228 197 188 224 251 264 258 248 246 244 226 220 225 244 253 245 242 240 238 226 216 206 206 205 208 224 244 203 204 232 241 274 262 260 252 243